TimeCST,TemperatureF,Dew PointF,Humidity,Sea Level PressureIn,VisibilityMPH,Wind Direction,Wind SpeedMPH,Gust SpeedMPH,PrecipitationIn,Events,Conditions,WindDirDegrees,DateUTC
12:55 AM,17.8,16.9,96,30.18,10.0,Calm,Calm,-,N/A,,Clear,0,2013-01-16 06:55:00
1:55 AM,17.6,16.2,94,30.18,10.0,Calm,Calm,-,N/A,,Clear,0,2013-01-16 07:55:00
2:55 AM,17.4,16.0,94,30.18,10.0,WNW,4.6,-,N/A,,Clear,290,2013-01-16 08:55:00
3:55 AM,16.7,14.9,93,30.17,10.0,Calm,Calm,-,N/A,,Clear,0,2013-01-16 09:55:00
5:55 AM,14.7,13.1,93,30.16,10.0,SSE,3.5,-,N/A,,Clear,160,2013-01-16 11:55:00
6:55 AM,14.5,13.1,94,30.17,10.0,SW,3.5,-,N/A,,Clear,220,2013-01-16 12:55:00
7:55 AM,14.4,12.9,94,30.17,10.0,SW,3.5,-,N/A,,Clear,220,2013-01-16 13:55:00
8:55 AM,19.9,17.4,90,30.18,10.0,Calm,Calm,-,N/A,,Clear,0,2013-01-16 14:55:00
9:55 AM,27.0,19.4,73,30.18,10.0,SW,5.8,-,N/A,,Clear,220,2013-01-16 15:55:00
10:55 AM,32.5,19.0,58,30.15,10.0,South,5.8,-,N/A,,Clear,190,2013-01-16 16:55:00
11:55 AM,35.8,21.0,55,30.12,10.0,Variable,6.9,-,N/A,,Clear,0,2013-01-16 17:55:00
12:55 PM,37.8,22.1,53,30.08,10.0,WNW,8.1,-,N/A,,Clear,290,2013-01-16 18:55:00
1:55 PM,39.7,19.8,45,30.09,10.0,WNW,10.4,-,N/A,,Clear,290,2013-01-16 19:55:00
2:55 PM,40.3,19.2,43,30.09,10.0,WSW,8.1,-,N/A,,Clear,250,2013-01-16 20:55:00
3:55 PM,40.6,18.7,41,30.10,10.0,SW,8.1,-,N/A,,Clear,220,2013-01-16 21:55:00
4:55 PM,39.0,19.8,46,30.11,10.0,Variable,3.5,-,N/A,,Clear,0,2013-01-16 22:55:00
5:55 PM,35.4,20.3,54,30.14,10.0,Calm,Calm,-,N/A,,Clear,0,2013-01-16 23:55:00
6:55 PM,33.3,20.8,60,30.14,10.0,West,3.5,-,N/A,,Clear,260,2013-01-17 00:55:00
7:55 PM,32.0,21.4,65,30.15,10.0,SW,3.5,-,N/A,,Clear,230,2013-01-17 01:55:00
8:55 PM,30.6,21.7,70,30.15,10.0,SW,3.5,-,N/A,,Clear,220,2013-01-17 02:55:00
9:55 PM,30.2,21.7,71,30.16,10.0,Calm,Calm,-,N/A,,Clear,0,2013-01-17 03:55:00
10:55 PM,30.6,22.1,71,30.15,10.0,WSW,3.5,-,N/A,,Clear,250,2013-01-17 04:55:00
11:55 PM,30.2,22.5,73,30.16,10.0,SSW,3.5,-,N/A,,Overcast,210,2013-01-17 05:55:00